| time (UTC) | temp F | wind direction | speed MPH | gust MPH | rain 1hr in | rain 24hr in | rain mn in | humidity % | barometer mb |
| 20260504174655 | 59 | 23 | 1.0 | 6.0 | 0.00 | 0.00 | 0.00 | 42 | 1015.0 |
| 20260504173656 | 59 | 268 | 0.0 | 5.0 | 0.00 | 0.00 | 0.00 | 42 | 1014.9 |
| 20260504172656 | 59 | 97 | 4.0 | 8.0 | 0.00 | 0.00 | 0.00 | 41 | 1015.0 |
| 20260504171656 | 60 | 175 | 3.0 | 8.0 | 0.00 | 0.00 | 0.00 | 42 | 1015.1 |
| 20260504170656 | 60 | 295 | 0.0 | 12.0 | 0.00 | 0.00 | 0.00 | 43 | 1015.3 |
| 20260504140656 | 71 | 57 | 0.0 | 11.0 | 0.00 | 0.00 | 0.00 | 29 | 1014.7 |
| 20260504130656 | 67 | 160 | 1.0 | 14.0 | 0.00 | 0.00 | 0.00 | 35 | 1014.7 |
| 20260504080701 | 60 | 132 | 0.0 | 1.0 | 0.00 | 0.00 | 0.00 | 58 | 1016.4 |
| 20260504050658 | 51 | 307 | 0.0 | 1.0 | 0.00 | 0.00 | 0.00 | 63 | 1016.0 |
| 20260504045657 | 51 | 150 | 0.0 | 0.0 | 0.00 | 0.00 | 0.00 | 65 | 1016.0 |
| 20260504044657 | 50 | 150 | 0.0 | 0.0 | 0.00 | 0.00 | 0.00 | 67 | 1016.1 |
| 20260504043703 | 50 | 150 | 0.0 | 0.0 | 0.00 | 0.00 | 0.00 | 67 | 1016.1 |
| 20260504042657 | 50 | 150 | 0.0 | 0.0 | 0.00 | 0.00 | 0.00 | 67 | 1016.1 |
| 20260504035700 | 50 | 130 | 0.0 | 0.0 | 0.00 | 0.00 | 0.00 | 68 | 1016.2 |
| 20260504033702 | 50 | 130 | 0.0 | 0.0 | 0.00 | 0.00 | 0.00 | 68 | 1016.3 |
| 20260504030657 | 49 | 112 | 0.0 | 1.0 | 0.00 | 0.00 | 0.00 | 72 | 1016.5 |
| 20260504024703 | 49 | 106 | 0.0 | 1.0 | 0.00 | 0.00 | 0.00 | 71 | 1016.7 |
| 20260504023657 | 49 | 106 | 0.0 | 1.0 | 0.00 | 0.00 | 0.00 | 71 | 1016.8 |
| 20260504022658 | 49 | 300 | 0.0 | 0.0 | 0.00 | 0.00 | 0.00 | 71 | 1016.8 |
| 20260504021702 | 49 | 300 | 0.0 | 0.0 | 0.00 | 0.00 | 0.00 | 71 | 1016.8 |
| 20260504015658 | 49 | 317 | 3.0 | 4.0 | 0.00 | 0.00 | 0.00 | 73 | 1016.9 |
| 20260504014700 | 49 | 153 | 0.0 | 0.0 | 0.00 | 0.00 | 0.00 | 76 | 1016.8 |
| 20260504013659 | 49 | 153 | 0.0 | 0.0 | 0.00 | 0.00 | 0.00 | 75 | 1016.9 |
| 20260504012658 | 49 | 153 | 0.0 | 0.0 | 0.00 | 0.00 | 0.00 | 75 | 1016.9 |
| 20260504011657 | 49 | 164 | 0.0 | 3.0 | 0.00 | 0.00 | 0.00 | 75 | 1016.9 |
| 20260504010701 | 49 | 164 | 2.0 | 3.0 | 0.00 | 0.00 | 0.00 | 74 | 1016.9 |
| 20260504005657 | 50 | 158 | 3.0 | 5.0 | 0.00 | 0.00 | 0.00 | 74 | 1017.0 |
| 20260504004702 | 50 | 146 | 3.0 | 4.0 | 0.00 | 0.00 | 0.00 | 73 | 1017.0 |
| 20260504003657 | 50 | 167 | 3.0 | 3.0 | 0.00 | 0.00 | 0.00 | 74 | 1017.0 |
| 20260504001658 | 50 | 150 | 2.0 | 4.0 | 0.00 | 0.00 | 0.00 | 73 | 1017.2 |
| 20260504000658 | 51 | 153 | 4.0 | 5.0 | 0.00 | 0.00 | 0.00 | 73 | 1017.4 |
| 20260503234701 | 51 | 142 | 2.0 | 5.0 | 0.00 | 0.00 | 0.00 | 73 | 1017.5 |
| 20260503233658 | 51 | 150 | 4.0 | 6.0 | 0.00 | 0.00 | 0.00 | 72 | 1017.5 |
| 20260503232702 | 51 | 144 | 5.0 | 6.0 | 0.00 | 0.00 | 0.00 | 71 | 1017.6 |
| 20260503230658 | 51 | 144 | 2.0 | 5.0 | 0.00 | 0.00 | 0.00 | 72 | 1017.7 |
| 20260503225658 | 51 | 136 | 4.0 | 5.0 | 0.00 | 0.00 | 0.00 | 73 | 1017.7 |
| 20260503224658 | 51 | 167 | 2.0 | 5.0 | 0.00 | 0.00 | 0.00 | 74 | 1017.7 |
| 20260503222658 | 51 | 47 | 0.0 | 2.0 | 0.00 | 0.00 | 0.00 | 76 | 1017.7 |
| 20260503220659 | 51 | 350 | 0.0 | 3.0 | 0.00 | 0.00 | 0.00 | 76 | 1017.6 |
| 20260503213658 | 52 | 313 | 4.0 | 4.0 | 0.00 | 0.00 | 0.00 | 73 | 1017.5 |
| 20260503210658 | 53 | 274 | 2.0 | 8.0 | 0.00 | 0.00 | 0.00 | 68 | 1017.4 |
| 20260503204658 | 54 | 16 | 1.0 | 5.0 | 0.00 | 0.00 | 0.00 | 66 | 1017.1 |
| 20260503202658 | 54 | 338 | 2.0 | 7.0 | 0.00 | 0.00 | 0.00 | 65 | 1017.1 |
| 20260503201658 | 55 | 33 | 4.0 | 4.0 | 0.00 | 0.00 | 0.00 | 63 | 1017.2 |
| 20260503200659 | 55 | 298 | 0.0 | 8.0 | 0.00 | 0.00 | 0.00 | 64 | 1017.1 |
| 20260503195658 | 57 | 201 | 2.0 | 6.0 | 0.00 | 0.00 | 0.00 | 59 | 1017.0 |
| 20260503194658 | 59 | 73 | 0.0 | 0.0 | 0.00 | 0.00 | 0.00 | 49 | 1016.9 |
| 20260503193703 | 60 | 292 | 2.0 | 2.0 | 0.00 | 0.00 | 0.00 | 48 | 1016.9 |
| 20260503192658 | 60 | 125 | 0.0 | 4.0 | 0.00 | 0.00 | 0.00 | 44 | 1016.8 |
| 20260503185658 | 60 | 156 | 4.0 | 5.0 | 0.00 | 0.00 | 0.00 | 45 | 1016.5 |
| 20260503183659 | 61 | 153 | 3.0 | 5.0 | 0.00 | 0.00 | 0.00 | 40 | 1016.4 |
| 20260503182659 | 61 | 178 | 0.0 | 0.0 | 0.00 | 0.00 | 0.00 | 38 | 1016.4 |
| 20260503180659 | 63 | 331 | 1.0 | 6.0 | 0.00 | 0.00 | 0.00 | 35 | 1016.4 |
| 20260503175659 | 63 | 150 | 3.0 | 7.0 | 0.00 | 0.00 | 0.00 | 35 | 1016.4 |